Wetterdaten: Donnerstag, 11.06.2015
Datum Zeit Temperatur Luftfeuchte Luftdruck Regen Wind Richtung Richtung Sonnenschein ET UV Solar Taupunkt Windchill Windben
11.06.2015 00:00 16,8 C 61 % 1022,8 hPa 0,0 l/m 0,9 km/h (0 Bft) O-NO 67 0 min 0,000 mm 0,0 UV-I 0 W/m 9,2 C 16,8 C 9,7 km/h (2 Bft)
11.06.2015 00:05 16,8 C 61 % 1022,8 hPa 0,0 l/m 0,6 km/h (0 Bft) O-NO 76 0 min 0,000 mm 0,0 UV-I 0 W/m 9,2 C 16,8 C 8,0 km/h (2 Bft)
11.06.2015 00:10 16,8 C 61 % 1022,8 hPa 0,0 l/m 0,0 km/h (0 Bft) O-NO 67 0 min 0,000 mm 0,0 UV-I 0 W/m 9,2 C 16,8 C 1,6 km/h (1 Bft)
11.06.2015 00:15 16,7 C 61 % 1022,8 hPa 0,0 l/m 0,5 km/h (0 Bft) NO 45 0 min 0,000 mm 0,0 UV-I 0 W/m 9,1 C 16,7 C 6,4 km/h (2 Bft)
11.06.2015 00:20 16,7 C 61 % 1022,7 hPa 0,0 l/m 0,0 km/h (0 Bft) O-NO 77 0 min 0,000 mm 0,0 UV-I 0 W/m 9,1 C 16,7 C 1,6 km/h (1 Bft)
11.06.2015 00:25 16,7 C 61 % 1022,7 hPa 0,0 l/m 0,0 km/h (0 Bft) NO 56 0 min 0,000 mm 0,0 UV-I 0 W/m 9,1 C 16,7 C 1,6 km/h (1 Bft)
11.06.2015 00:30 16,7 C 62 % 1022,6 hPa 0,0 l/m 0,0 km/h (0 Bft) NO 46 0 min 0,000 mm 0,0 UV-I 0 W/m 9,4 C 16,7 C 0,0 km/h (0 Bft)
11.06.2015 00:35 16,7 C 62 % 1022,6 hPa 0,0 l/m 0,0 km/h (0 Bft) O-NO 69 0 min 0,000 mm 0,0 UV-I 0 W/m 9,4 C 16,7 C 0,0 km/h (0 Bft)
11.06.2015 00:40 16,6 C 62 % 1022,6 hPa 0,0 l/m 0,4 km/h (0 Bft) O-NO 76 0 min 0,000 mm 0,0 UV-I 0 W/m 9,3 C 16,6 C 4,8 km/h (1 Bft)
11.06.2015 00:45 16,6 C 61 % 1022,5 hPa 0,0 l/m 0,1 km/h (0 Bft) N-NO 33 0 min 0,000 mm 0,0 UV-I 0 W/m 9,0 C 16,6 C 1,6 km/h (1 Bft)
11.06.2015 00:50 16,6 C 62 % 1022,5 hPa 0,0 l/m 0,1 km/h (0 Bft) O 84 0 min 0,000 mm 0,0 UV-I 0 W/m 9,3 C 16,6 C 3,2 km/h (1 Bft)
11.06.2015 00:55 16,6 C 62 % 1022,5 hPa 0,0 l/m 0,7 km/h (0 Bft) O-NO 69 0 min 0,000 mm 0,0 UV-I 0 W/m 9,3 C 16,6 C 9,7 km/h (2 Bft)
11.06.2015 01:00 16,5 C 62 % 1022,5 hPa 0,0 l/m 0,4 km/h (0 Bft) NO 50 0 min 0,000 mm 0,0 UV-I 0 W/m 9,2 C 16,5 C 6,4 km/h (2 Bft)
11.06.2015 01:05 16,5 C 62 % 1022,4 hPa 0,0 l/m 0,1 km/h (0 Bft) O-NO 61 0 min 0,025 mm 0,0 UV-I 0 W/m 9,2 C 16,5 C 1,6 km/h (1 Bft)
11.06.2015 01:10 16,4 C 62 % 1022,4 hPa 0,0 l/m 0,0 km/h (0 Bft) O-NO 61 0 min 0,000 mm 0,0 UV-I 0 W/m 9,1 C 16,4 C 0,0 km/h (0 Bft)
11.06.2015 01:15 16,4 C 62 % 1022,4 hPa 0,0 l/m 0,1 km/h (0 Bft) O-NO 65 0 min 0,000 mm 0,0 UV-I 0 W/m 9,1 C 16,4 C 1,6 km/h (1 Bft)
11.06.2015 01:20 16,4 C 62 % 1022,4 hPa 0,0 l/m 0,6 km/h (0 Bft) O-NO 62 0 min 0,000 mm 0,0 UV-I 0 W/m 9,1 C 16,4 C 4,8 km/h (1 Bft)
11.06.2015 01:25 16,4 C 61 % 1022,3 hPa 0,0 l/m 0,9 km/h (0 Bft) O-NO 57 0 min 0,000 mm 0,0 UV-I 0 W/m 8,9 C 16,4 C 4,8 km/h (1 Bft)
11.06.2015 01:30 16,4 C 62 % 1022,3 hPa 0,0 l/m 0,5 km/h (0 Bft) N 11 0 min 0,000 mm 0,0 UV-I 0 W/m 9,1 C 16,4 C 4,8 km/h (1 Bft)
11.06.2015 01:35 16,3 C 62 % 1022,3 hPa 0,0 l/m 0,4 km/h (0 Bft) NO 45 0 min 0,000 mm 0,0 UV-I 0 W/m 9,0 C 16,3 C 6,4 km/h (2 Bft)
11.06.2015 01:40 16,3 C 62 % 1022,2 hPa 0,0 l/m 0,0 km/h (0 Bft) NO 45 0 min 0,000 mm 0,0 UV-I 0 W/m 9,0 C 16,3 C 0,0 km/h (0 Bft)
11.06.2015 01:45 16,3 C 62 % 1022,2 hPa 0,0 l/m 0,8 km/h (0 Bft) NO 36 0 min 0,000 mm 0,0 UV-I 0 W/m 9,0 C 16,3 C 6,4 km/h (2 Bft)
11.06.2015 01:50 16,2 C 62 % 1022,2 hPa 0,0 l/m 0,2 km/h (0 Bft) O 94 0 min 0,000 mm 0,0 UV-I 0 W/m 8,9 C 16,2 C 3,2 km/h (1 Bft)
11.06.2015 01:55 16,2 C 62 % 1022,2 hPa 0,0 l/m 1,1 km/h (1 Bft) NO 51 0 min 0,000 mm 0,0 UV-I 0 W/m 8,9 C 16,2 C 4,8 km/h (1 Bft)
11.06.2015 02:00 16,2 C 62 % 1022,3 hPa 0,0 l/m 0,7 km/h (0 Bft) O-NO 58 0 min 0,000 mm 0,0 UV-I 0 W/m 8,9 C 16,2 C 8,0 km/h (2 Bft)
11.06.2015 02:05 16,2 C 62 % 1022,2 hPa 0,0 l/m 0,2 km/h (0 Bft) NO 49 0 min 0,026 mm 0,0 UV-I 0 W/m 8,9 C 16,2 C 3,2 km/h (1 Bft)
11.06.2015 02:10 16,2 C 62 % 1022,2 hPa 0,0 l/m 0,4 km/h (0 Bft) O-NO 69 0 min 0,000 mm 0,0 UV-I 0 W/m 8,9 C 16,2 C 6,4 km/h (2 Bft)
11.06.2015 02:15 16,1 C 62 % 1022,2 hPa 0,0 l/m 0,7 km/h (0 Bft) O-NO 58 0 min 0,000 mm 0,0 UV-I 0 W/m 8,8 C 16,1 C 6,4 km/h (2 Bft)
11.06.2015 02:20 16,1 C 62 % 1022,2 hPa 0,0 l/m 0,3 km/h (0 Bft) O-NO 57 0 min 0,000 mm 0,0 UV-I 0 W/m 8,8 C 16,1 C 3,2 km/h (1 Bft)
11.06.2015 02:25 16,1 C 62 % 1022,3 hPa 0,0 l/m 0,9 km/h (0 Bft) N-NO 24 0 min 0,000 mm 0,0 UV-I 0 W/m 8,8 C 16,1 C 8,0 km/h (2 Bft)
11.06.2015 02:30 16,1 C 63 % 1022,3 hPa 0,0 l/m 1,2 km/h (1 Bft) O-NO 57 0 min 0,000 mm 0,0 UV-I 0 W/m 9,1 C 16,1 C 8,0 km/h (2 Bft)
11.06.2015 02:35 16,0 C 63 % 1022,2 hPa 0,0 l/m 1,2 km/h (1 Bft) O 79 0 min 0,000 mm 0,0 UV-I 0 W/m 9,0 C 16,0 C 6,4 km/h (2 Bft)
11.06.2015 02:40 16,0 C 63 % 1022,2 hPa 0,0 l/m 0,7 km/h (0 Bft) O-NO 71 0 min 0,000 mm 0,0 UV-I 0 W/m 9,0 C 16,0 C 8,0 km/h (2 Bft)
11.06.2015 02:45 15,9 C 63 % 1022,2 hPa 0,0 l/m 0,3 km/h (0 Bft) NO 37 0 min 0,000 mm 0,0 UV-I 0 W/m 8,9 C 15,9 C 3,2 km/h (1 Bft)
11.06.2015 02:50 15,9 C 63 % 1022,1 hPa 0,0 l/m 0,6 km/h (0 Bft) O-NO 60 0 min 0,000 mm 0,0 UV-I 0 W/m 8,9 C 15,9 C 6,4 km/h (2 Bft)
11.06.2015 02:55 15,9 C 62 % 1022,1 hPa 0,0 l/m 1,8 km/h (1 Bft) O-NO 59 0 min 0,000 mm 0,0 UV-I 0 W/m 8,6 C 15,9 C 11,3 km/h (2 Bft)
11.06.2015 03:00 15,9 C 63 % 1022,1 hPa 0,0 l/m 2,6 km/h (1 Bft) O-NO 66 0 min 0,000 mm 0,0 UV-I 0 W/m 8,9 C 15,9 C 14,5 km/h (3 Bft)
11.06.2015 03:05 15,9 C 63 % 1022,0 hPa 0,0 l/m 0,2 km/h (0 Bft) O-NO 59 0 min 0,025 mm 0,0 UV-I 0 W/m 8,9 C 15,9 C 3,2 km/h (1 Bft)
11.06.2015 03:10 15,9 C 63 % 1022,0 hPa 0,0 l/m 2,7 km/h (1 Bft) NO 51 0 min 0,000 mm 0,0 UV-I 0 W/m 8,9 C 15,9 C 11,3 km/h (2 Bft)
11.06.2015 03:15 15,8 C 63 % 1022,0 hPa 0,0 l/m 0,9 km/h (0 Bft) O-NO 59 0 min 0,000 mm 0,0 UV-I 0 W/m 8,8 C 15,8 C 4,8 km/h (1 Bft)
11.06.2015 03:20 15,8 C 63 % 1022,0 hPa 0,0 l/m 0,5 km/h (0 Bft) NO 50 0 min 0,000 mm 0,0 UV-I 0 W/m 8,8 C 15,8 C 6,4 km/h (2 Bft)
11.06.2015 03:25 15,8 C 63 % 1022,0 hPa 0,0 l/m 0,6 km/h (0 Bft) NO 56 0 min 0,000 mm 0,0 UV-I 0 W/m 8,8 C 15,8 C 4,8 km/h (1 Bft)
11.06.2015 03:30 15,7 C 63 % 1022,0 hPa 0,0 l/m 1,1 km/h (1 Bft) NO 55 0 min 0,000 mm 0,0 UV-I 0 W/m 8,7 C 15,7 C 6,4 km/h (2 Bft)
11.06.2015 03:35 15,7 C 63 % 1021,9 hPa 0,0 l/m 1,7 km/h (1 Bft) O-SO 103 0 min 0,000 mm 0,0 UV-I 0 W/m 8,7 C 15,7 C 8,0 km/h (2 Bft)
11.06.2015 03:40 15,7 C 63 % 1021,9 hPa 0,0 l/m 1,2 km/h (1 Bft) NO 37 0 min 0,000 mm 0,0 UV-I 0 W/m 8,7 C 15,7 C 6,4 km/h (2 Bft)
11.06.2015 03:45 15,7 C 63 % 1021,9 hPa 0,0 l/m 0,5 km/h (0 Bft) NO 51 0 min 0,000 mm 0,0 UV-I 0 W/m 8,7 C 15,7 C 4,8 km/h (1 Bft)
11.06.2015 03:50 15,7 C 62 % 1021,8 hPa 0,0 l/m 1,7 km/h (1 Bft) O-NO 63 0 min 0,000 mm 0,0 UV-I 0 W/m 8,4 C 15,7 C 6,4 km/h (2 Bft)
11.06.2015 03:55 15,7 C 62 % 1021,8 hPa 0,0 l/m 1,3 km/h (1 Bft) NO 46 0 min 0,000 mm 0,0 UV-I 0 W/m 8,4 C 15,7 C 6,4 km/h (2 Bft)
11.06.2015 04:00 15,7 C 62 % 1021,8 hPa 0,0 l/m 0,6 km/h (0 Bft) N-NO 26 0 min 0,000 mm 0,0 UV-I 0 W/m 8,4 C 15,7 C 4,8 km/h (1 Bft)
11.06.2015 04:05 15,7 C 62 % 1021,8 hPa 0,0 l/m 1,2 km/h (1 Bft) NO 52 0 min 0,000 mm 0,0 UV-I 0 W/m 8,4 C 15,7 C 9,7 km/h (2 Bft)
11.06.2015 04:10 15,7 C 63 % 1021,7 hPa 0,0 l/m 0,2 km/h (0 Bft) O 91 0 min 0,000 mm 0,0 UV-I 0 W/m 8,7 C 15,7 C 3,2 km/h (1 Bft)
11.06.2015 04:15 15,6 C 62 % 1021,7 hPa 0,0 l/m 1,2 km/h (1 Bft) NO 53 0 min 0,000 mm 0,0 UV-I 0 W/m 8,3 C 15,6 C 9,7 km/h (2 Bft)
11.06.2015 04:20 15,7 C 62 % 1021,6 hPa 0,0 l/m 0,7 km/h (0 Bft) NO 53 0 min 0,000 mm 0,0 UV-I 0 W/m 8,4 C 15,7 C 6,4 km/h (2 Bft)
11.06.2015 04:25 15,6 C 63 % 1021,6 hPa 0,0 l/m 0,3 km/h (0 Bft) O-NO 57 0 min 0,000 mm 0,0 UV-I 0 W/m 8,6 C 15,6 C 3,2 km/h (1 Bft)
11.06.2015 04:30 15,6 C 63 % 1021,5 hPa 0,0 l/m 0,1 km/h (0 Bft) NO 55 0 min 0,000 mm 0,0 UV-I 0 W/m 8,6 C 15,6 C 3,2 km/h (1 Bft)
11.06.2015 04:35 15,6 C 63 % 1021,5 hPa 0,0 l/m 0,0 km/h (0 Bft) NO 55 0 min 0,000 mm 0,0 UV-I 0 W/m 8,6 C 15,6 C 0,0 km/h (0 Bft)
11.06.2015 04:40 15,5 C 63 % 1021,4 hPa 0,0 l/m 1,0 km/h (0 Bft) NO 55 0 min 0,000 mm 0,0 UV-I 0 W/m 8,5 C 15,5 C 6,4 km/h (2 Bft)
11.06.2015 04:45 15,5 C 63 % 1021,4 hPa 0,0 l/m 0,1 km/h (0 Bft) O-NO 62 0 min 0,000 mm 0,0 UV-I 0 W/m 8,5 C 15,5 C 3,2 km/h (1 Bft)
11.06.2015 04:50 15,5 C 63 % 1021,3 hPa 0,0 l/m 0,0 km/h (0 Bft) O-NO 62 0 min 0,000 mm 0,0 UV-I 0 W/m 8,5 C 15,5 C 0,0 km/h (0 Bft)
11.06.2015 04:55 15,4 C 63 % 1021,3 hPa 0,0 l/m 0,0 km/h (0 Bft) O-NO 61 0 min 0,000 mm 0,0 UV-I 0 W/m 8,4 C 15,4 C 1,6 km/h (1 Bft)
11.06.2015 05:00 15,4 C 63 % 1021,3 hPa 0,0 l/m 0,0 km/h (0 Bft) O 82 0 min 0,026 mm 0,0 UV-I 0 W/m 8,4 C 15,4 C 0,0 km/h (0 Bft)
11.06.2015 05:05 15,4 C 63 % 1021,2 hPa 0,0 l/m 0,0 km/h (0 Bft) O-NO 59 0 min 0,000 mm 0,0 UV-I 0 W/m 8,4 C 15,4 C 1,6 km/h (1 Bft)
11.06.2015 05:10 15,3 C 63 % 1021,2 hPa 0,0 l/m 0,5 km/h (0 Bft) O-NO 57 0 min 0,000 mm 0,0 UV-I 0 W/m 8,3 C 15,3 C 3,2 km/h (1 Bft)
11.06.2015 05:15 15,3 C 63 % 1021,2 hPa 0,0 l/m 0,5 km/h (0 Bft) O-NO 63 0 min 0,000 mm 0,0 UV-I 0 W/m 8,3 C 15,3 C 8,0 km/h (2 Bft)
11.06.2015 05:20 15,3 C 63 % 1021,2 hPa 0,0 l/m 0,7 km/h (0 Bft) NO 34 0 min 0,000 mm 0,0 UV-I 3 W/m 8,3 C 15,3 C 6,4 km/h (2 Bft)
11.06.2015 05:25 15,2 C 63 % 1021,1 hPa 0,0 l/m 0,0 km/h (0 Bft) NO 51 0 min 0,000 mm 0,0 UV-I 6 W/m 8,2 C 15,2 C 3,2 km/h (1 Bft)
11.06.2015 05:30 15,2 C 64 % 1021,1 hPa 0,0 l/m 0,1 km/h (0 Bft) O-NO 65 0 min 0,000 mm 0,0 UV-I 10 W/m 8,4 C 15,2 C 4,8 km/h (1 Bft)
11.06.2015 05:35 15,2 C 64 % 1021,1 hPa 0,0 l/m 0,0 km/h (0 Bft) N-NO 30 0 min 0,000 mm 0,0 UV-I 15 W/m 8,4 C 15,2 C 0,0 km/h (0 Bft)
11.06.2015 05:40 15,1 C 64 % 1021,1 hPa 0,0 l/m 0,0 km/h (0 Bft) NO 34 0 min 0,000 mm 0,0 UV-I 20 W/m 8,3 C 15,1 C 0,0 km/h (0 Bft)
11.06.2015 05:45 15,2 C 64 % 1021,0 hPa 0,0 l/m 0,1 km/h (0 Bft) NO 45 0 min 0,000 mm 0,0 UV-I 22 W/m 8,4 C 15,2 C 1,6 km/h (1 Bft)
11.06.2015 05:50 15,2 C 64 % 1021,1 hPa 0,0 l/m 0,0 km/h (0 Bft) O-NO 59 0 min 0,000 mm 0,0 UV-I 27 W/m 8,4 C 15,2 C 1,6 km/h (1 Bft)
11.06.2015 05:55 15,2 C 63 % 1021,0 hPa 0,0 l/m 0,6 km/h (0 Bft) N-NO 15 0 min 0,000 mm 0,0 UV-I 34 W/m 8,2 C 15,2 C 8,0 km/h (2 Bft)
11.06.2015 06:00 15,2 C 63 % 1021,0 hPa 0,0 l/m 0,0 km/h (0 Bft) N-NO 28 0 min 0,025 mm 0,0 UV-I 43 W/m 8,2 C 15,2 C 0,0 km/h (0 Bft)
11.06.2015 06:05 15,3 C 64 % 1021,1 hPa 0,0 l/m 0,0 km/h (0 Bft) NO 34 0 min 0,000 mm 0,0 UV-I 50 W/m 8,5 C 15,3 C 0,0 km/h (0 Bft)
11.06.2015 06:10 15,3 C 63 % 1021,0 hPa 0,0 l/m 0,3 km/h (0 Bft) O-NO 61 0 min 0,000 mm 0,0 UV-I 51 W/m 8,3 C 15,3 C 4,8 km/h (1 Bft)
11.06.2015 06:15 15,4 C 63 % 1021,0 hPa 0,0 l/m 0,7 km/h (0 Bft) O-NO 70 0 min 0,000 mm 0,0 UV-I 54 W/m 8,4 C 15,4 C 9,7 km/h (2 Bft)
11.06.2015 06:20 15,4 C 63 % 1020,9 hPa 0,0 l/m 0,5 km/h (0 Bft) NO 53 0 min 0,000 mm 0,0 UV-I 52 W/m 8,4 C 15,4 C 4,8 km/h (1 Bft)
11.06.2015 06:25 15,5 C 63 % 1020,9 hPa 0,0 l/m 0,3 km/h (0 Bft) O-NO 70 0 min 0,000 mm 0,0 UV-I 48 W/m 8,5 C 15,5 C 3,2 km/h (1 Bft)
11.06.2015 06:30 15,5 C 63 % 1020,9 hPa 0,0 l/m 0,3 km/h (0 Bft) NO 51 0 min 0,000 mm 0,0 UV-I 53 W/m 8,5 C 15,5 C 8,0 km/h (2 Bft)
11.06.2015 06:35 15,5 C 63 % 1021,0 hPa 0,0 l/m 0,8 km/h (0 Bft) NO 36 0 min 0,000 mm 0,0 UV-I 57 W/m 8,5 C 15,5 C 6,4 km/h (2 Bft)
11.06.2015 06:40 15,6 C 63 % 1021,0 hPa 0,0 l/m 1,0 km/h (0 Bft) O 86 0 min 0,000 mm 0,0 UV-I 55 W/m 8,6 C 15,6 C 6,4 km/h (2 Bft)
11.06.2015 06:45 15,6 C 63 % 1021,0 hPa 0,0 l/m 1,1 km/h (1 Bft) NO 54 0 min 0,000 mm 0,0 UV-I 52 W/m 8,6 C 15,6 C 8,0 km/h (2 Bft)
11.06.2015 06:50 15,6 C 63 % 1021,1 hPa 0,0 l/m 0,6 km/h (0 Bft) O-NO 64 0 min 0,000 mm 0,0 UV-I 64 W/m 8,6 C 15,6 C 4,8 km/h (1 Bft)
11.06.2015 06:55 15,6 C 62 % 1021,1 hPa 0,0 l/m 1,1 km/h (1 Bft) O-NO 59 0 min 0,000 mm 0,0 UV-I 73 W/m 8,3 C 15,6 C 8,0 km/h (2 Bft)
11.06.2015 07:00 15,7 C 63 % 1021,0 hPa 0,0 l/m 1,9 km/h (1 Bft) O 87 0 min 0,051 mm 0,0 UV-I 79 W/m 8,7 C 15,7 C 12,9 km/h (3 Bft)
11.06.2015 07:05 15,7 C 62 % 1020,9 hPa 0,0 l/m 0,9 km/h (0 Bft) NO 44 0 min 0,000 mm 0,0 UV-I 82 W/m 8,4 C 15,7 C 6,4 km/h (2 Bft)
11.06.2015 07:10 15,8 C 62 % 1020,9 hPa 0,0 l/m 1,2 km/h (1 Bft) O-NO 69 0 min 0,000 mm 0,0 UV-I 86 W/m 8,5 C 15,8 C 4,8 km/h (1 Bft)
11.06.2015 07:15 15,8 C 62 % 1020,8 hPa 0,0 l/m 1,8 km/h (1 Bft) O-NO 67 0 min 0,000 mm 0,0 UV-I 93 W/m 8,5 C 15,8 C 11,3 km/h (2 Bft)
11.06.2015 07:20 15,8 C 63 % 1020,9 hPa 0,0 l/m 0,5 km/h (0 Bft) NO 48 0 min 0,000 mm 0,0 UV-I 106 W/m 8,8 C 15,8 C 4,8 km/h (1 Bft)
11.06.2015 07:25 15,9 C 63 % 1020,8 hPa 0,0 l/m 0,8 km/h (0 Bft) O-NO 62 0 min 0,000 mm 0,0 UV-I 121 W/m 8,9 C 15,9 C 8,0 km/h (2 Bft)
11.06.2015 07:30 16,0 C 63 % 1020,8 hPa 0,0 l/m 0,4 km/h (0 Bft) O 80 0 min 0,000 mm 0,0 UV-I 121 W/m 9,0 C 16,0 C 4,8 km/h (1 Bft)
11.06.2015 07:35 16,2 C 62 % 1020,8 hPa 0,0 l/m 0,6 km/h (0 Bft) O-NO 63 0 min 0,000 mm 0,3 UV-I 133 W/m 8,9 C 16,2 C 9,7 km/h (2 Bft)
11.06.2015 07:40 16,2 C 61 % 1020,8 hPa 0,0 l/m 0,7 km/h (0 Bft) NO 49 0 min 0,000 mm 0,5 UV-I 138 W/m 8,7 C 16,2 C 6,4 km/h (2 Bft)
11.06.2015 07:45 16,3 C 61 % 1020,8 hPa 0,0 l/m 1,5 km/h (1 Bft) N-NO 30 0 min 0,000 mm 0,5 UV-I 138 W/m 8,8 C 16,3 C 11,3 km/h (2 Bft)
11.06.2015 07:50 16,3 C 61 % 1020,9 hPa 0,0 l/m 5,2 km/h (1 Bft) O-NO 61 0 min 0,000 mm 0,5 UV-I 140 W/m 8,8 C 16,3 C 11,3 km/h (2 Bft)
11.06.2015 07:55 16,4 C 61 % 1020,8 hPa 0,0 l/m 2,0 km/h (1 Bft) NO 42 0 min 0,000 mm 0,6 UV-I 149 W/m 8,9 C 16,4 C 6,4 km/h (2 Bft)
11.06.2015 08:00 16,4 C 61 % 1020,7 hPa 0,0 l/m 1,2 km/h (1 Bft) NO 49 0 min 0,076 mm 0,6 UV-I 157 W/m 8,9 C 16,4 C 8,0 km/h (2 Bft)
11.06.2015 08:05 16,6 C 60 % 1020,7 hPa 0,0 l/m 2,6 km/h (1 Bft) NO 41 0 min 0,000 mm 0,6 UV-I 163 W/m 8,8 C 16,6 C 8,0 km/h (2 Bft)
11.06.2015 08:10 16,6 C 60 % 1020,7 hPa 0,0 l/m 2,4 km/h (1 Bft) O 88 0 min 0,000 mm 0,7 UV-I 166 W/m 8,8 C 16,6 C 12,9 km/h (3 Bft)
11.06.2015 08:15 16,7 C 60 % 1020,8 hPa 0,0 l/m 2,3 km/h (1 Bft) O-NO 65 0 min 0,000 mm 0,7 UV-I 165 W/m 8,9 C 16,7 C 8,0 km/h (2 Bft)
11.06.2015 08:20 16,7 C 60 % 1020,8 hPa 0,0 l/m 1,8 km/h (1 Bft) O-NO 59 0 min 0,000 mm 0,8 UV-I 182 W/m 8,9 C 16,7 C 16,1 km/h (3 Bft)
11.06.2015 08:25 16,8 C 60 % 1020,7 hPa 0,0 l/m 1,2 km/h (1 Bft) O-NO 65 0 min 0,000 mm 0,8 UV-I 210 W/m 9,0 C 16,8 C 11,3 km/h (2 Bft)
11.06.2015 08:30 17,0 C 59 % 1020,8 hPa 0,0 l/m 1,1 km/h (1 Bft) O-NO 78 0 min 0,000 mm 0,9 UV-I 218 W/m 8,9 C 17,0 C 8,0 km/h (2 Bft)
11.06.2015 08:35 17,2 C 58 % 1020,7 hPa 0,0 l/m 2,6 km/h (1 Bft) N-NW 337 0 min 0,000 mm 1,0 UV-I 227 W/m 8,9 C 17,2 C 12,9 km/h (3 Bft)
11.06.2015 08:40 17,3 C 59 % 1020,7 hPa 0,0 l/m 3,9 km/h (1 Bft) NO 48 0 min 0,000 mm 1,1 UV-I 237 W/m 9,2 C 17,3 C 12,9 km/h (3 Bft)
11.06.2015 08:45 17,6 C 59 % 1020,7 hPa 0,0 l/m 2,2 km/h (1 Bft) NO 47 5 min 0,000 mm 1,2 UV-I 318 W/m 9,5 C 17,6 C 8,0 km/h (2 Bft)
11.06.2015 08:50 17,9 C 57 % 1020,7 hPa 0,0 l/m 5,2 km/h (1 Bft) O-NO 59 5 min 0,000 mm 1,3 UV-I 290 W/m 9,3 C 17,9 C 12,9 km/h (3 Bft)
11.06.2015 08:55 17,8 C 57 % 1020,7 hPa 0,0 l/m 5,8 km/h (2 Bft) NO 47 0 min 0,000 mm 1,3 UV-I 284 W/m 9,2 C 17,8 C 16,1 km/h (3 Bft)
11.06.2015 09:00 18,2 C 57 % 1020,7 hPa 0,0 l/m 2,1 km/h (1 Bft) O-NO 65 5 min 0,152 mm 1,5 UV-I 378 W/m 9,5 C 18,2 C 8,0 km/h (2 Bft)
11.06.2015 09:05 18,7 C 56 % 1020,7 hPa 0,0 l/m 2,4 km/h (1 Bft) NO 52 0 min 0,000 mm 1,5 UV-I 292 W/m 9,7 C 18,7 C 11,3 km/h (2 Bft)
11.06.2015 09:10 19,1 C 55 % 1020,6 hPa 0,0 l/m 2,3 km/h (1 Bft) NO 37 5 min 0,000 mm 1,6 UV-I 308 W/m 9,8 C 19,1 C 11,3 km/h (2 Bft)
11.06.2015 09:15 19,4 C 54 % 1020,7 hPa 0,0 l/m 3,0 km/h (1 Bft) N-NO 23 5 min 0,000 mm 1,6 UV-I 317 W/m 9,8 C 19,4 C 11,3 km/h (2 Bft)
11.06.2015 09:20 19,4 C 54 % 1020,7 hPa 0,0 l/m 1,9 km/h (1 Bft) NO 36 5 min 0,000 mm 1,7 UV-I 356 W/m 9,8 C 19,4 C 11,3 km/h (2 Bft)
11.06.2015 09:25 19,4 C 53 % 1020,7 hPa 0,0 l/m 6,4 km/h (2 Bft) O-NO 61 0 min 0,000 mm 1,6 UV-I 311 W/m 9,6 C 19,4 C 14,5 km/h (3 Bft)
11.06.2015 09:30 19,3 C 54 % 1020,7 hPa 0,0 l/m 6,6 km/h (2 Bft) O-NO 63 5 min 0,000 mm 1,6 UV-I 331 W/m 9,8 C 19,2 C 16,1 km/h (3 Bft)
11.06.2015 09:35 18,9 C 54 % 1020,7 hPa 0,0 l/m 8,8 km/h (2 Bft) NO 55 5 min 0,000 mm 1,8 UV-I 342 W/m 9,4 C 17,9 C 17,7 km/h (3 Bft)
11.06.2015 09:40 19,0 C 54 % 1020,7 hPa 0,0 l/m 7,0 km/h (2 Bft) NO 36 0 min 0,000 mm 1,9 UV-I 339 W/m 9,5 C 18,7 C 16,1 km/h (3 Bft)
11.06.2015 09:45 19,8 C 53 % 1020,6 hPa 0,0 l/m 5,3 km/h (1 Bft) NO 55 5 min 0,000 mm 2,3 UV-I 557 W/m 9,9 C 19,8 C 16,1 km/h (3 Bft)
11.06.2015 09:50 19,9 C 52 % 1020,6 hPa 0,0 l/m 6,3 km/h (2 Bft) O-NO 72 5 min 0,000 mm 2,1 UV-I 408 W/m 9,7 C 19,9 C 16,1 km/h (3 Bft)
11.06.2015 09:55 19,6 C 53 % 1020,5 hPa 0,0 l/m 9,4 km/h (2 Bft) O-NO 65 5 min 0,000 mm 2,2 UV-I 432 W/m 9,8 C 18,4 C 17,7 km/h (3 Bft)
11.06.2015 10:00 19,6 C 53 % 1020,5 hPa 0,0 l/m 6,6 km/h (2 Bft) O-NO 78 5 min 0,254 mm 2,3 UV-I 404 W/m 9,8 C 19,5 C 14,5 km/h (3 Bft)
11.06.2015 10:05 19,3 C 55 % 1020,4 hPa 0,0 l/m 5,7 km/h (1 Bft) N-NO 32 5 min 0,000 mm 2,4 UV-I 410 W/m 10,0 C 19,3 C 12,9 km/h (3 Bft)
11.06.2015 10:10 19,6 C 54 % 1020,4 hPa 0,0 l/m 6,5 km/h (2 Bft) O-NO 63 0 min 0,000 mm 2,4 UV-I 370 W/m 10,0 C 19,6 C 14,5 km/h (3 Bft)
11.06.2015 10:15 19,9 C 53 % 1020,5 hPa 0,0 l/m 4,7 km/h (1 Bft) NO 53 5 min 0,000 mm 2,6 UV-I 420 W/m 10,0 C 19,9 C 12,9 km/h (3 Bft)
11.06.2015 10:20 19,6 C 54 % 1020,4 hPa 0,0 l/m 5,8 km/h (2 Bft) O-NO 62 0 min 0,000 mm 2,5 UV-I 354 W/m 10,0 C 19,6 C 12,9 km/h (3 Bft)
11.06.2015 10:25 19,6 C 53 % 1020,4 hPa 0,0 l/m 9,1 km/h (2 Bft) O 97 5 min 0,000 mm 2,7 UV-I 394 W/m 9,8 C 18,5 C 22,5 km/h (4 Bft)
11.06.2015 10:30 19,4 C 55 % 1020,4 hPa 0,0 l/m 6,7 km/h (2 Bft) NO 47 5 min 0,000 mm 2,7 UV-I 401 W/m 10,1 C 19,3 C 14,5 km/h (3 Bft)
11.06.2015 10:35 19,6 C 55 % 1020,3 hPa 0,0 l/m 6,1 km/h (2 Bft) O 87 0 min 0,000 mm 2,7 UV-I 393 W/m 10,3 C 19,6 C 14,5 km/h (3 Bft)
11.06.2015 10:40 20,1 C 54 % 1020,3 hPa 0,0 l/m 7,4 km/h (2 Bft) NO 54 5 min 0,000 mm 3,2 UV-I 473 W/m 10,5 C 19,7 C 14,5 km/h (3 Bft)
11.06.2015 10:45 20,6 C 53 % 1020,2 hPa 0,0 l/m 2,2 km/h (1 Bft) O-NO 63 5 min 0,000 mm 3,1 UV-I 560 W/m 10,7 C 20,6 C 11,3 km/h (2 Bft)
11.06.2015 10:50 20,9 C 53 % 1020,2 hPa 0,0 l/m 4,7 km/h (1 Bft) NO 42 5 min 0,000 mm 3,2 UV-I 523 W/m 11,0 C 20,9 C 17,7 km/h (3 Bft)
11.06.2015 10:55 20,5 C 51 % 1020,3 hPa 0,0 l/m 8,0 km/h (2 Bft) NO 45 0 min 0,000 mm 2,8 UV-I 406 W/m 10,0 C 19,9 C 16,1 km/h (3 Bft)
11.06.2015 11:00 20,1 C 52 % 1020,2 hPa 0,0 l/m 7,0 km/h (2 Bft) O-NO 60 5 min 0,280 mm 3,0 UV-I 420 W/m 9,9 C 19,9 C 14,5 km/h (3 Bft)
11.06.2015 11:05 20,3 C 51 % 1020,3 hPa 0,0 l/m 5,8 km/h (2 Bft) NO 49 5 min 0,000 mm 3,2 UV-I 445 W/m 9,8 C 20,3 C 11,3 km/h (2 Bft)
11.06.2015 11:10 20,3 C 52 % 1020,2 hPa 0,0 l/m 5,4 km/h (1 Bft) N-NO 32 0 min 0,000 mm 3,0 UV-I 397 W/m 10,1 C 20,3 C 12,9 km/h (3 Bft)
11.06.2015 11:15 19,9 C 51 % 1020,1 hPa 0,0 l/m 4,4 km/h (1 Bft) O-SO 103 0 min 0,000 mm 3,1 UV-I 411 W/m 9,5 C 19,9 C 12,9 km/h (3 Bft)
11.06.2015 11:20 19,6 C 53 % 1020,1 hPa 0,0 l/m 6,5 km/h (2 Bft) O 90 5 min 0,000 mm 3,5 UV-I 459 W/m 9,8 C 19,6 C 16,1 km/h (3 Bft)
11.06.2015 11:25 19,8 C 53 % 1020,1 hPa 0,0 l/m 7,3 km/h (2 Bft) O-NO 65 0 min 0,000 mm 2,9 UV-I 382 W/m 9,9 C 19,4 C 14,5 km/h (3 Bft)
11.06.2015 11:30 20,1 C 51 % 1020,1 hPa 0,0 l/m 8,0 km/h (2 Bft) O-SO 109 0 min 0,000 mm 2,8 UV-I 360 W/m 9,6 C 19,5 C 12,9 km/h (3 Bft)
11.06.2015 11:35 20,1 C 51 % 1020,1 hPa 0,0 l/m 4,2 km/h (1 Bft) NO 46 0 min 0,000 mm 2,7 UV-I 356 W/m 9,6 C 20,1 C 14,5 km/h (3 Bft)
11.06.2015 11:40 19,9 C 52 % 1020,0 hPa 0,0 l/m 4,6 km/h (1 Bft) O-NO 76 0 min 0,000 mm 3,0 UV-I 384 W/m 9,7 C 19,9 C 12,9 km/h (3 Bft)
11.06.2015 11:45 19,8 C 52 % 1020,0 hPa 0,0 l/m 4,0 km/h (1 Bft) O 84 0 min 0,000 mm 3,1 UV-I 397 W/m 9,7 C 19,8 C 12,9 km/h (3 Bft)
11.06.2015 11:50 19,5 C 54 % 1019,9 hPa 0,0 l/m 7,5 km/h (2 Bft) NO 50 0 min 0,000 mm 3,0 UV-I 384 W/m 9,9 C 19,0 C 14,5 km/h (3 Bft)
11.06.2015 11:55 20,2 C 51 % 1019,9 hPa 0,0 l/m 7,5 km/h (2 Bft) NO 41 0 min 0,000 mm 3,0 UV-I 376 W/m 9,7 C 19,8 C 17,7 km/h (3 Bft)
11.06.2015 12:00 19,9 C 51 % 1019,8 hPa 0,0 l/m 7,2 km/h (2 Bft) O 98 0 min 0,279 mm 3,1 UV-I 382 W/m 9,5 C 19,6 C 12,9 km/h (3 Bft)
11.06.2015 12:05 20,0 C 52 % 1019,8 hPa 0,0 l/m 7,5 km/h (2 Bft) O-NO 59 0 min 0,000 mm 3,6 UV-I 450 W/m 9,8 C 19,5 C 16,1 km/h (3 Bft)
11.06.2015 12:10 20,2 C 51 % 1019,8 hPa 0,0 l/m 7,5 km/h (2 Bft) O-SO 103 5 min 0,000 mm 4,1 UV-I 527 W/m 9,7 C 19,8 C 16,1 km/h (3 Bft)
11.06.2015 12:15 20,2 C 51 % 1019,8 hPa 0,0 l/m 10,4 km/h (2 Bft) O-NO 61 5 min 0,000 mm 4,2 UV-I 549 W/m 9,7 C 18,7 C 20,9 km/h (4 Bft)
11.06.2015 12:20 20,4 C 50 % 1019,8 hPa 0,0 l/m 10,3 km/h (2 Bft) O-NO 78 5 min 0,000 mm 5,0 UV-I 563 W/m 9,6 C 19,0 C 20,9 km/h (4 Bft)
11.06.2015 12:25 21,1 C 49 % 1019,8 hPa 0,0 l/m 11,3 km/h (2 Bft) NO 46 5 min 0,000 mm 6,3 UV-I 810 W/m 10,0 C 19,5 C 19,3 km/h (3 Bft)
11.06.2015 12:30 22,3 C 46 % 1019,7 hPa 0,0 l/m 6,7 km/h (2 Bft) O-NO 66 5 min 0,000 mm 6,7 UV-I 1200 W/m 10,1 C 22,2 C 16,1 km/h (3 Bft)
11.06.2015 12:35 22,2 C 46 % 1019,6 hPa 0,0 l/m 8,2 km/h (2 Bft) O-SO 112 5 min 0,000 mm 5,0 UV-I 676 W/m 10,0 C 21,6 C 19,3 km/h (3 Bft)
11.06.2015 12:40 21,6 C 49 % 1019,6 hPa 0,0 l/m 7,4 km/h (2 Bft) N 355 5 min 0,000 mm 5,4 UV-I 534 W/m 10,4 C 21,2 C 16,1 km/h (3 Bft)
11.06.2015 12:45 23,2 C 46 % 1019,4 hPa 0,0 l/m 1,5 km/h (1 Bft) NO 50 5 min 0,000 mm 6,3 UV-I 727 W/m 10,9 C 23,2 C 4,8 km/h (1 Bft)
11.06.2015 12:50 23,5 C 44 % 1019,4 hPa 0,0 l/m 5,5 km/h (1 Bft) O-NO 68 5 min 0,000 mm 7,0 UV-I 1008 W/m 10,5 C 23,5 C 17,7 km/h (3 Bft)
11.06.2015 12:55 23,2 C 44 % 1019,3 hPa 0,0 l/m 7,7 km/h (2 Bft) O-NO 69 5 min 0,000 mm 7,1 UV-I 993 W/m 10,3 C 22,8 C 16,1 km/h (3 Bft)
11.06.2015 13:00 22,0 C 46 % 1019,2 hPa 0,0 l/m 8,0 km/h (2 Bft) O-SO 123 5 min 0,508 mm 7,0 UV-I 988 W/m 9,8 C 21,5 C 20,9 km/h (4 Bft)
11.06.2015 13:05 22,6 C 45 % 1019,2 hPa 0,0 l/m 9,7 km/h (2 Bft) O-SO 116 5 min 0,000 mm 6,3 UV-I 725 W/m 10,1 C 21,6 C 19,3 km/h (3 Bft)
11.06.2015 13:10 21,7 C 47 % 1019,2 hPa 0,0 l/m 12,5 km/h (3 Bft) O 90 5 min 0,000 mm 6,4 UV-I 833 W/m 9,9 C 19,9 C 22,5 km/h (4 Bft)
11.06.2015 13:15 21,7 C 47 % 1019,2 hPa 0,0 l/m 11,7 km/h (2 Bft) NO 54 5 min 0,000 mm 5,8 UV-I 633 W/m 9,9 C 20,1 C 22,5 km/h (4 Bft)
11.06.2015 13:20 23,2 C 44 % 1019,1 hPa 0,0 l/m 7,6 km/h (2 Bft) NO 49 5 min 0,000 mm 6,9 UV-I 972 W/m 10,3 C 22,8 C 19,3 km/h (3 Bft)
11.06.2015 13:25 23,0 C 43 % 1019,2 hPa 0,0 l/m 11,8 km/h (2 Bft) O-SO 103 5 min 0,000 mm 7,4 UV-I 1067 W/m 9,7 C 21,5 C 20,9 km/h (4 Bft)
11.06.2015 13:30 22,5 C 44 % 1019,0 hPa 0,0 l/m 10,0 km/h (2 Bft) NO 49 5 min 0,000 mm 7,2 UV-I 1064 W/m 9,6 C 21,4 C 16,1 km/h (3 Bft)
11.06.2015 13:35 22,1 C 46 % 1018,9 hPa 0,0 l/m 10,7 km/h (2 Bft) O 94 5 min 0,000 mm 5,8 UV-I 793 W/m 9,9 C 20,8 C 17,7 km/h (3 Bft)
11.06.2015 13:40 23,2 C 44 % 1019,0 hPa 0,0 l/m 10,1 km/h (2 Bft) O 99 5 min 0,000 mm 5,7 UV-I 655 W/m 10,3 C 22,2 C 20,9 km/h (4 Bft)
11.06.2015 13:45 23,3 C 44 % 1018,9 hPa 0,0 l/m 7,9 km/h (2 Bft) O-NO 64 5 min 0,000 mm 5,3 UV-I 634 W/m 10,4 C 22,8 C 16,1 km/h (3 Bft)
11.06.2015 13:50 23,1 C 43 % 1018,8 hPa 0,0 l/m 6,9 km/h (2 Bft) O-NO 59 5 min 0,000 mm 4,7 UV-I 533 W/m 9,8 C 22,9 C 14,5 km/h (3 Bft)
11.06.2015 13:55 22,0 C 46 % 1018,7 hPa 0,0 l/m 9,4 km/h (2 Bft) O-SO 107 5 min 0,000 mm 5,9 UV-I 642 W/m 9,8 C 21,0 C 16,1 km/h (3 Bft)
11.06.2015 14:00 21,4 C 46 % 1018,7 hPa 0,0 l/m 9,3 km/h (2 Bft) O-SO 107 5 min 0,559 mm 5,8 UV-I 646 W/m 9,3 C 20,4 C 17,7 km/h (3 Bft)
11.06.2015 14:05 22,2 C 45 % 1018,6 hPa 0,0 l/m 8,0 km/h (2 Bft) O 91 5 min 0,000 mm 5,7 UV-I 540 W/m 9,7 C 21,7 C 16,1 km/h (3 Bft)
11.06.2015 14:10 22,2 C 46 % 1018,6 hPa 0,0 l/m 8,1 km/h (2 Bft) O 83 5 min 0,000 mm 5,6 UV-I 553 W/m 10,0 C 21,6 C 17,7 km/h (3 Bft)
11.06.2015 14:15 22,9 C 44 % 1018,6 hPa 0,0 l/m 8,9 km/h (2 Bft) O-NO 77 5 min 0,000 mm 5,0 UV-I 533 W/m 10,0 C 22,1 C 17,7 km/h (3 Bft)
11.06.2015 14:20 22,8 C 44 % 1018,5 hPa 0,0 l/m 6,5 km/h (2 Bft) NO 34 5 min 0,000 mm 5,9 UV-I 563 W/m 9,9 C 22,8 C 17,7 km/h (3 Bft)
11.06.2015 14:25 23,0 C 44 % 1018,4 hPa 0,0 l/m 11,3 km/h (2 Bft) O-NO 72 5 min 0,000 mm 4,6 UV-I 511 W/m 10,1 C 21,6 C 22,5 km/h (4 Bft)
11.06.2015 14:30 22,9 C 44 % 1018,4 hPa 0,0 l/m 9,3 km/h (2 Bft) NO 42 5 min 0,000 mm 4,5 UV-I 507 W/m 10,0 C 22,0 C 20,9 km/h (4 Bft)
11.06.2015 14:35 23,1 C 43 % 1018,3 hPa 0,0 l/m 4,7 km/h (1 Bft) O-SO 107 5 min 0,000 mm 5,3 UV-I 569 W/m 9,8 C 23,1 C 12,9 km/h (3 Bft)
11.06.2015 14:40 23,4 C 44 % 1018,2 hPa 0,0 l/m 5,0 km/h (1 Bft) O-NO 61 5 min 0,000 mm 6,1 UV-I 988 W/m 10,4 C 23,4 C 22,5 km/h (4 Bft)
11.06.2015 14:45 22,9 C 43 % 1018,3 hPa 0,0 l/m 11,1 km/h (2 Bft) O-SO 105 5 min 0,000 mm 4,0 UV-I 605 W/m 9,6 C 21,6 C 19,3 km/h (3 Bft)
11.06.2015 14:50 22,0 C 46 % 1018,2 hPa 0,0 l/m 6,2 km/h (2 Bft) SO 145 5 min 0,000 mm 4,6 UV-I 534 W/m 9,8 C 22,0 C 12,9 km/h (3 Bft)
11.06.2015 14:55 23,2 C 45 % 1018,1 hPa 0,0 l/m 8,5 km/h (2 Bft) O-NO 63 5 min 0,000 mm 5,1 UV-I 759 W/m 10,6 C 22,6 C 16,1 km/h (3 Bft)
11.06.2015 15:00 23,6 C 43 % 1018,1 hPa 0,0 l/m 9,2 km/h (2 Bft) O 92 0 min 0,457 mm 3,5 UV-I 401 W/m 10,3 C 22,8 C 20,9 km/h (4 Bft)
11.06.2015 15:05 22,8 C 45 % 1018,0 hPa 0,0 l/m 10,2 km/h (2 Bft) O-NO 57 5 min 0,000 mm 4,4 UV-I 474 W/m 10,2 C 21,7 C 19,3 km/h (3 Bft)
11.06.2015 15:10 23,3 C 43 % 1018,0 hPa 0,0 l/m 7,2 km/h (2 Bft) O-SO 118 5 min 0,000 mm 5,6 UV-I 845 W/m 10,0 C 23,1 C 16,1 km/h (3 Bft)
11.06.2015 15:15 22,5 C 45 % 1018,0 hPa 0,0 l/m 5,7 km/h (1 Bft) O-NO 77 5 min 0,000 mm 4,1 UV-I 707 W/m 10,0 C 22,5 C 16,1 km/h (3 Bft)
11.06.2015 15:20 22,6 C 46 % 1017,9 hPa 0,0 l/m 4,9 km/h (1 Bft) NO 49 5 min 0,000 mm 3,9 UV-I 536 W/m 10,4 C 22,6 C 16,1 km/h (3 Bft)
11.06.2015 15:25 22,6 C 45 % 1017,9 hPa 0,0 l/m 1,0 km/h (0 Bft) NW 306 0 min 0,000 mm 3,1 UV-I 378 W/m 10,1 C 22,6 C 6,4 km/h (2 Bft)
11.06.2015 15:30 22,9 C 44 % 1017,9 hPa 0,0 l/m 7,6 km/h (2 Bft) NO 45 0 min 0,000 mm 2,6 UV-I 307 W/m 10,0 C 22,5 C 20,9 km/h (4 Bft)
11.06.2015 15:35 22,9 C 45 % 1017,9 hPa 0,0 l/m 8,2 km/h (2 Bft) O 96 0 min 0,000 mm 2,7 UV-I 318 W/m 10,3 C 22,3 C 20,9 km/h (4 Bft)
11.06.2015 15:40 22,2 C 45 % 1017,9 hPa 0,0 l/m 4,9 km/h (1 Bft) O 96 0 min 0,000 mm 3,1 UV-I 349 W/m 9,7 C 22,2 C 14,5 km/h (3 Bft)
11.06.2015 15:45 21,8 C 47 % 1017,7 hPa 0,0 l/m 3,4 km/h (1 Bft) O-NO 74 0 min 0,000 mm 3,4 UV-I 398 W/m 10,0 C 21,8 C 11,3 km/h (2 Bft)
11.06.2015 15:50 22,0 C 46 % 1017,7 hPa 0,0 l/m 8,7 km/h (2 Bft) O-SO 103 5 min 0,000 mm 3,5 UV-I 485 W/m 9,8 C 21,2 C 16,1 km/h (3 Bft)
11.06.2015 15:55 22,3 C 47 % 1017,7 hPa 0,0 l/m 8,7 km/h (2 Bft) O-NO 76 5 min 0,000 mm 3,8 UV-I 626 W/m 10,4 C 21,6 C 16,1 km/h (3 Bft)
11.06.2015 16:00 22,6 C 46 % 1017,6 hPa 0,0 l/m 5,5 km/h (1 Bft) O 88 5 min 0,356 mm 3,5 UV-I 520 W/m 10,4 C 22,6 C 17,7 km/h (3 Bft)
11.06.2015 16:05 22,9 C 45 % 1017,5 hPa 0,0 l/m 6,5 km/h (2 Bft) O-SO 118 5 min 0,000 mm 3,8 UV-I 616 W/m 10,3 C 22,9 C 16,1 km/h (3 Bft)
11.06.2015 16:10 23,1 C 44 % 1017,5 hPa 0,0 l/m 6,6 km/h (2 Bft) O-NO 64 0 min 0,000 mm 2,6 UV-I 301 W/m 10,2 C 23,0 C 19,3 km/h (3 Bft)
11.06.2015 16:15 22,6 C 46 % 1017,4 hPa 0,0 l/m 9,3 km/h (2 Bft) N-NO 25 0 min 0,000 mm 2,4 UV-I 267 W/m 10,4 C 21,7 C 20,9 km/h (4 Bft)
11.06.2015 16:20 22,4 C 46 % 1017,4 hPa 0,0 l/m 5,9 km/h (2 Bft) O-NO 68 0 min 0,000 mm 2,3 UV-I 257 W/m 10,2 C 22,4 C 12,9 km/h (3 Bft)
11.06.2015 16:25 23,0 C 46 % 1017,3 hPa 0,0 l/m 0,0 km/h (0 Bft) NO 54 0 min 0,000 mm 2,2 UV-I 240 W/m 10,7 C 23,0 C 1,6 km/h (1 Bft)
11.06.2015 16:30 23,1 C 45 % 1017,3 hPa 0,0 l/m 6,1 km/h (2 Bft) O 91 0 min 0,000 mm 1,9 UV-I 217 W/m 10,5 C 23,1 C 16,1 km/h (3 Bft)
11.06.2015 16:35 22,3 C 46 % 1017,2 hPa 0,0 l/m 9,1 km/h (2 Bft) O-NO 78 0 min 0,000 mm 1,8 UV-I 198 W/m 10,1 C 21,4 C 16,1 km/h (3 Bft)
11.06.2015 16:40 22,1 C 48 % 1017,2 hPa 0,0 l/m 5,6 km/h (1 Bft) O-NO 61 0 min 0,000 mm 1,9 UV-I 205 W/m 10,6 C 22,1 C 16,1 km/h (3 Bft)
11.06.2015 16:45 22,1 C 47 % 1017,2 hPa 0,0 l/m 4,7 km/h (1 Bft) NO 35 0 min 0,000 mm 2,0 UV-I 222 W/m 10,3 C 22,1 C 12,9 km/h (3 Bft)
11.06.2015 16:50 22,1 C 48 % 1017,1 hPa 0,0 l/m 1,7 km/h (1 Bft) O-SO 111 0 min 0,000 mm 2,0 UV-I 226 W/m 10,6 C 22,1 C 11,3 km/h (2 Bft)
11.06.2015 16:55 22,5 C 48 % 1017,1 hPa 0,0 l/m 0,0 km/h (0 Bft) O-NO 76 0 min 0,000 mm 2,2 UV-I 249 W/m 10,9 C 22,5 C 1,6 km/h (1 Bft)
11.06.2015 17:00 22,8 C 46 % 1016,9 hPa 0,0 l/m 0,4 km/h (0 Bft) O-NO 58 5 min 0,228 mm 2,9 UV-I 542 W/m 10,6 C 22,8 C 3,2 km/h (1 Bft)
11.06.2015 17:05 22,4 C 46 % 1016,8 hPa 0,0 l/m 3,7 km/h (1 Bft) O-NO 65 5 min 0,000 mm 2,8 UV-I 677 W/m 10,2 C 22,4 C 16,1 km/h (3 Bft)
11.06.2015 17:10 22,7 C 46 % 1016,8 hPa 0,0 l/m 4,3 km/h (1 Bft) O 82 5 min 0,000 mm 2,8 UV-I 644 W/m 10,5 C 22,7 C 14,5 km/h (3 Bft)
11.06.2015 17:15 22,6 C 46 % 1016,8 hPa 0,0 l/m 6,3 km/h (2 Bft) O-SO 105 5 min 0,000 mm 2,6 UV-I 617 W/m 10,4 C 22,6 C 14,5 km/h (3 Bft)
11.06.2015 17:20 22,4 C 46 % 1016,8 hPa 0,0 l/m 6,3 km/h (2 Bft) O 83 5 min 0,000 mm 2,6 UV-I 625 W/m 10,2 C 22,4 C 12,9 km/h (3 Bft)
11.06.2015 17:25 23,2 C 45 % 1016,6 hPa 0,0 l/m 1,2 km/h (1 Bft) O 81 5 min 0,000 mm 2,4 UV-I 604 W/m 10,6 C 23,2 C 6,4 km/h (2 Bft)
11.06.2015 17:30 23,8 C 43 % 1016,5 hPa 0,0 l/m 2,9 km/h (1 Bft) N-NO 19 5 min 0,000 mm 2,3 UV-I 600 W/m 10,5 C 23,8 C 9,7 km/h (2 Bft)
11.06.2015 17:35 23,8 C 43 % 1016,5 hPa 0,0 l/m 4,6 km/h (1 Bft) O-SO 107 5 min 0,000 mm 2,2 UV-I 625 W/m 10,5 C 23,8 C 14,5 km/h (3 Bft)
11.06.2015 17:40 23,2 C 45 % 1016,4 hPa 0,0 l/m 8,5 km/h (2 Bft) O 99 5 min 0,000 mm 2,0 UV-I 621 W/m 10,6 C 22,6 C 16,1 km/h (3 Bft)
11.06.2015 17:45 23,3 C 45 % 1016,3 hPa 0,0 l/m 8,5 km/h (2 Bft) N 10 5 min 0,000 mm 1,9 UV-I 626 W/m 10,7 C 22,7 C 19,3 km/h (3 Bft)
11.06.2015 17:50 23,6 C 44 % 1016,3 hPa 0,0 l/m 9,8 km/h (2 Bft) O-NO 63 5 min 0,000 mm 1,7 UV-I 557 W/m 10,6 C 22,7 C 17,7 km/h (3 Bft)
11.06.2015 17:55 23,4 C 44 % 1016,3 hPa 0,0 l/m 7,3 km/h (2 Bft) O-NO 59 5 min 0,000 mm 1,5 UV-I 463 W/m 10,4 C 23,1 C 14,5 km/h (3 Bft)
11.06.2015 18:00 22,8 C 45 % 1016,2 hPa 0,0 l/m 6,9 km/h (2 Bft) O-NO 57 0 min 0,407 mm 1,2 UV-I 168 W/m 10,2 C 22,6 C 16,1 km/h (3 Bft)
11.06.2015 18:05 22,6 C 46 % 1016,2 hPa 0,0 l/m 2,7 km/h (1 Bft) N-NW 342 0 min 0,000 mm 1,2 UV-I 123 W/m 10,4 C 22,6 C 8,0 km/h (2 Bft)
11.06.2015 18:10 22,6 C 46 % 1016,1 hPa 0,0 l/m 2,3 km/h (1 Bft) O-NO 78 0 min 0,000 mm 1,2 UV-I 121 W/m 10,4 C 22,6 C 4,8 km/h (1 Bft)
11.06.2015 18:15 22,2 C 46 % 1016,1 hPa 0,0 l/m 6,5 km/h (2 Bft) NO 55 0 min 0,000 mm 1,2 UV-I 133 W/m 10,0 C 22,2 C 14,5 km/h (3 Bft)
11.06.2015 18:20 21,8 C 48 % 1016,1 hPa 0,0 l/m 6,4 km/h (2 Bft) O 97 0 min 0,000 mm 1,1 UV-I 191 W/m 10,3 C 21,8 C 12,9 km/h (3 Bft)
11.06.2015 18:25 21,7 C 48 % 1016,0 hPa 0,0 l/m 4,2 km/h (1 Bft) O 100 0 min 0,000 mm 1,1 UV-I 216 W/m 10,2 C 21,7 C 11,3 km/h (2 Bft)
11.06.2015 18:30 21,8 C 48 % 1015,8 hPa 0,0 l/m 5,1 km/h (1 Bft) O 94 5 min 0,000 mm 1,2 UV-I 352 W/m 10,3 C 21,8 C 14,5 km/h (3 Bft)
11.06.2015 18:35 22,0 C 48 % 1015,9 hPa 0,0 l/m 5,5 km/h (1 Bft) O-NO 61 5 min 0,000 mm 1,2 UV-I 420 W/m 10,5 C 22,0 C 11,3 km/h (2 Bft)
11.06.2015 18:40 22,1 C 48 % 1015,8 hPa 0,0 l/m 2,8 km/h (1 Bft) O-NO 61 5 min 0,000 mm 1,1 UV-I 392 W/m 10,6 C 22,1 C 14,5 km/h (3 Bft)
11.06.2015 18:45 22,4 C 48 % 1015,7 hPa 0,0 l/m 1,8 km/h (1 Bft) O 94 5 min 0,000 mm 1,0 UV-I 376 W/m 10,8 C 22,4 C 16,1 km/h (3 Bft)
11.06.2015 18:50 22,4 C 47 % 1015,6 hPa 0,0 l/m 4,9 km/h (1 Bft) O-NO 73 5 min 0,000 mm 0,9 UV-I 353 W/m 10,5 C 22,4 C 12,9 km/h (3 Bft)
11.06.2015 18:55 22,1 C 48 % 1015,6 hPa 0,0 l/m 2,8 km/h (1 Bft) O-NO 76 0 min 0,000 mm 0,8 UV-I 117 W/m 10,6 C 22,1 C 11,3 km/h (2 Bft)
11.06.2015 19:00 22,1 C 48 % 1015,5 hPa 0,0 l/m 0,8 km/h (0 Bft) O-NO 66 0 min 0,178 mm 0,7 UV-I 135 W/m 10,6 C 22,1 C 11,3 km/h (2 Bft)
11.06.2015 19:05 22,1 C 47 % 1015,6 hPa 0,0 l/m 6,9 km/h (2 Bft) O 97 5 min 0,000 mm 0,8 UV-I 321 W/m 10,3 C 21,9 C 17,7 km/h (3 Bft)
11.06.2015 19:10 22,1 C 48 % 1015,5 hPa 0,0 l/m 6,0 km/h (2 Bft) O 90 5 min 0,000 mm 0,7 UV-I 349 W/m 10,6 C 22,1 C 14,5 km/h (3 Bft)
11.06.2015 19:15 22,0 C 48 % 1015,5 hPa 0,0 l/m 9,4 km/h (2 Bft) O-NO 73 5 min 0,000 mm 0,6 UV-I 316 W/m 10,5 C 21,0 C 17,7 km/h (3 Bft)
11.06.2015 19:20 21,9 C 48 % 1015,5 hPa 0,0 l/m 6,9 km/h (2 Bft) NO 52 5 min 0,000 mm 0,6 UV-I 288 W/m 10,4 C 21,7 C 14,5 km/h (3 Bft)
11.06.2015 19:25 21,9 C 48 % 1015,5 hPa 0,0 l/m 6,8 km/h (2 Bft) NO 43 5 min 0,000 mm 0,6 UV-I 264 W/m 10,4 C 21,8 C 14,5 km/h (3 Bft)
11.06.2015 19:30 21,8 C 48 % 1015,4 hPa 0,0 l/m 7,2 km/h (2 Bft) O-NO 69 5 min 0,000 mm 0,6 UV-I 258 W/m 10,3 C 21,5 C 11,3 km/h (2 Bft)
11.06.2015 19:35 21,8 C 48 % 1015,4 hPa 0,0 l/m 4,9 km/h (1 Bft) O 101 5 min 0,000 mm 0,5 UV-I 257 W/m 10,3 C 21,8 C 11,3 km/h (2 Bft)
11.06.2015 19:40 21,7 C 48 % 1015,4 hPa 0,0 l/m 6,6 km/h (2 Bft) O 90 5 min 0,000 mm 0,0 UV-I 249 W/m 10,2 C 21,6 C 14,5 km/h (3 Bft)
11.06.2015 19:45 21,7 C 48 % 1015,4 hPa 0,0 l/m 6,9 km/h (2 Bft) NO 50 5 min 0,000 mm 0,0 UV-I 240 W/m 10,2 C 21,5 C 16,1 km/h (3 Bft)
11.06.2015 19:50 21,7 C 49 % 1015,3 hPa 0,0 l/m 6,2 km/h (2 Bft) O-SO 118 5 min 0,000 mm 0,0 UV-I 215 W/m 10,5 C 21,7 C 16,1 km/h (3 Bft)
11.06.2015 19:55 21,7 C 48 % 1015,3 hPa 0,0 l/m 4,8 km/h (1 Bft) O 99 5 min 0,000 mm 0,0 UV-I 188 W/m 10,2 C 21,7 C 11,3 km/h (2 Bft)
11.06.2015 20:00 21,5 C 48 % 1015,3 hPa 0,0 l/m 6,6 km/h (2 Bft) NO 34 5 min 0,203 mm 0,0 UV-I 162 W/m 10,0 C 21,4 C 14,5 km/h (3 Bft)
11.06.2015 20:05 21,4 C 49 % 1015,3 hPa 0,0 l/m 5,4 km/h (1 Bft) O-NO 69 5 min 0,000 mm 0,0 UV-I 145 W/m 10,2 C 21,4 C 9,7 km/h (2 Bft)
11.06.2015 20:10 21,3 C 49 % 1015,3 hPa 0,0 l/m 4,6 km/h (1 Bft) N-NO 32 5 min 0,000 mm 0,0 UV-I 130 W/m 10,1 C 21,3 C 9,7 km/h (2 Bft)
11.06.2015 20:15 21,2 C 49 % 1015,3 hPa 0,0 l/m 3,7 km/h (1 Bft) NO 54 5 min 0,000 mm 0,0 UV-I 119 W/m 10,1 C 21,2 C 8,0 km/h (2 Bft)
11.06.2015 20:20 21,2 C 50 % 1015,3 hPa 0,0 l/m 3,4 km/h (1 Bft) NO 34 5 min 0,000 mm 0,0 UV-I 107 W/m 10,4 C 21,2 C 12,9 km/h (3 Bft)
11.06.2015 20:25 21,1 C 50 % 1015,3 hPa 0,0 l/m 3,9 km/h (1 Bft) O-NO 61 5 min 0,000 mm 0,0 UV-I 96 W/m 10,3 C 21,1 C 14,5 km/h (3 Bft)
11.06.2015 20:30 20,8 C 51 % 1015,3 hPa 0,0 l/m 6,1 km/h (2 Bft) O-NO 64 5 min 0,000 mm 0,0 UV-I 82 W/m 10,3 C 20,8 C 12,9 km/h (3 Bft)
11.06.2015 20:35 20,7 C 52 % 1015,3 hPa 0,0 l/m 3,3 km/h (1 Bft) NO 43 0 min 0,000 mm 0,0 UV-I 64 W/m 10,5 C 20,7 C 11,3 km/h (2 Bft)
11.06.2015 20:40 20,6 C 52 % 1015,3 hPa 0,0 l/m 1,6 km/h (1 Bft) NO 51 0 min 0,000 mm 0,0 UV-I 49 W/m 10,4 C 20,6 C 6,4 km/h (2 Bft)
11.06.2015 20:45 20,3 C 53 % 1015,3 hPa 0,0 l/m 2,8 km/h (1 Bft) O-NO 63 0 min 0,000 mm 0,0 UV-I 53 W/m 10,4 C 20,3 C 12,9 km/h (3 Bft)
11.06.2015 20:50 20,2 C 53 % 1015,3 hPa 0,0 l/m 1,2 km/h (1 Bft) O-NO 65 0 min 0,000 mm 0,0 UV-I 46 W/m 10,3 C 20,2 C 11,3 km/h (2 Bft)
11.06.2015 20:55 20,2 C 53 % 1015,3 hPa 0,0 l/m 1,7 km/h (1 Bft) O-NO 59 0 min 0,000 mm 0,0 UV-I 40 W/m 10,3 C 20,2 C 6,4 km/h (2 Bft)
11.06.2015 21:00 20,0 C 54 % 1015,2 hPa 0,0 l/m 0,5 km/h (0 Bft) O-NO 69 0 min 0,076 mm 0,0 UV-I 31 W/m 10,4 C 20,0 C 8,0 km/h (2 Bft)
11.06.2015 21:05 19,8 C 54 % 1015,3 hPa 0,0 l/m 0,0 km/h (0 Bft) O-NO 61 0 min 0,000 mm 0,0 UV-I 24 W/m 10,2 C 19,8 C 1,6 km/h (1 Bft)
11.06.2015 21:10 19,6 C 55 % 1015,3 hPa 0,0 l/m 0,8 km/h (0 Bft) O-NO 68 0 min 0,000 mm 0,0 UV-I 20 W/m 10,3 C 19,6 C 4,8 km/h (1 Bft)
11.06.2015 21:15 19,4 C 56 % 1015,2 hPa 0,0 l/m 1,5 km/h (1 Bft) NO 45 0 min 0,000 mm 0,0 UV-I 17 W/m 10,4 C 19,4 C 8,0 km/h (2 Bft)
11.06.2015 21:20 19,2 C 57 % 1015,3 hPa 0,0 l/m 0,3 km/h (0 Bft) NO 50 5 min 0,000 mm 0,0 UV-I 14 W/m 10,5 C 19,2 C 6,4 km/h (2 Bft)
11.06.2015 21:25 19,1 C 57 % 1015,3 hPa 0,0 l/m 0,8 km/h (0 Bft) N 5 0 min 0,000 mm 0,0 UV-I 12 W/m 10,4 C 19,1 C 4,8 km/h (1 Bft)
11.06.2015 21:30 18,8 C 58 % 1015,3 hPa 0,0 l/m 0,7 km/h (0 Bft) O-NO 71 0 min 0,000 mm 0,0 UV-I 8 W/m 10,4 C 18,8 C 4,8 km/h (1 Bft)
11.06.2015 21:35 18,7 C 59 % 1015,3 hPa 0,0 l/m 0,8 km/h (0 Bft) NO 40 0 min 0,000 mm 0,0 UV-I 6 W/m 10,5 C 18,7 C 4,8 km/h (1 Bft)
11.06.2015 21:40 18,6 C 59 % 1015,3 hPa 0,0 l/m 2,4 km/h (1 Bft) N-NO 24 0 min 0,000 mm 0,0 UV-I 2 W/m 10,4 C 18,6 C 11,3 km/h (2 Bft)
11.06.2015 21:45 18,5 C 59 % 1015,3 hPa 0,0 l/m 2,2 km/h (1 Bft) O-NO 71 0 min 0,000 mm 0,0 UV-I 0 W/m 10,3 C 18,5 C 11,3 km/h (2 Bft)
11.06.2015 21:50 18,4 C 59 % 1015,4 hPa 0,0 l/m 2,8 km/h (1 Bft) NO 55 0 min 0,000 mm 0,0 UV-I 0 W/m 10,2 C 18,4 C 8,0 km/h (2 Bft)
11.06.2015 21:55 18,3 C 60 % 1015,4 hPa 0,0 l/m 2,0 km/h (1 Bft) NO 54 0 min 0,000 mm 0,0 UV-I 0 W/m 10,4 C 18,3 C 6,4 km/h (2 Bft)
11.06.2015 22:00 18,1 C 60 % 1015,5 hPa 0,0 l/m 1,3 km/h (1 Bft) NO 42 0 min 0,025 mm 0,0 UV-I 0 W/m 10,2 C 18,1 C 9,7 km/h (2 Bft)
11.06.2015 22:05 18,1 C 61 % 1015,6 hPa 0,0 l/m 1,7 km/h (1 Bft) O-NO 71 0 min 0,000 mm 0,0 UV-I 0 W/m 10,5 C 18,1 C 8,0 km/h (2 Bft)
11.06.2015 22:10 17,9 C 61 % 1015,6 hPa 0,0 l/m 1,0 km/h (0 Bft) O-NO 62 0 min 0,000 mm 0,0 UV-I 0 W/m 10,3 C 17,9 C 11,3 km/h (2 Bft)
11.06.2015 22:15 17,8 C 61 % 1015,6 hPa 0,0 l/m 0,3 km/h (0 Bft) NO 55 0 min 0,000 mm 0,0 UV-I 0 W/m 10,2 C 17,8 C 3,2 km/h (1 Bft)
11.06.2015 22:20 17,6 C 62 % 1015,7 hPa 0,0 l/m 0,2 km/h (0 Bft) NO 55 0 min 0,000 mm 0,0 UV-I 0 W/m 10,2 C 17,6 C 3,2 km/h (1 Bft)
11.06.2015 22:25 17,4 C 62 % 1015,7 hPa 0,0 l/m 0,0 km/h (0 Bft) NO 46 0 min 0,000 mm 0,0 UV-I 0 W/m 10,0 C 17,4 C 1,6 km/h (1 Bft)
11.06.2015 22:30 17,3 C 63 % 1015,7 hPa 0,0 l/m 0,0 km/h (0 Bft) O-NO 58 0 min 0,000 mm 0,0 UV-I 0 W/m 10,2 C 17,3 C 1,6 km/h (1 Bft)
11.06.2015 22:35 17,2 C 63 % 1015,7 hPa 0,0 l/m 0,4 km/h (0 Bft) O-NO 65 0 min 0,000 mm 0,0 UV-I 0 W/m 10,1 C 17,2 C 8,0 km/h (2 Bft)
11.06.2015 22:40 17,1 C 63 % 1015,8 hPa 0,0 l/m 0,2 km/h (0 Bft) O-NO 57 0 min 0,000 mm 0,0 UV-I 0 W/m 10,0 C 17,1 C 3,2 km/h (1 Bft)
11.06.2015 22:45 16,9 C 64 % 1015,8 hPa 0,0 l/m 0,0 km/h (0 Bft) NO 39 0 min 0,000 mm 0,0 UV-I 0 W/m 10,0 C 16,9 C 1,6 km/h (1 Bft)
11.06.2015 22:50 16,8 C 64 % 1015,8 hPa 0,0 l/m 1,3 km/h (1 Bft) O-NO 57 0 min 0,000 mm 0,0 UV-I 0 W/m 10,0 C 16,8 C 6,4 km/h (2 Bft)
11.06.2015 22:55 16,7 C 64 % 1015,7 hPa 0,0 l/m 0,1 km/h (0 Bft) N-NO 24 0 min 0,000 mm 0,0 UV-I 0 W/m 9,9 C 16,7 C 3,2 km/h (1 Bft)
11.06.2015 23:00 16,6 C 65 % 1015,7 hPa 0,0 l/m 0,0 km/h (0 Bft) NO 50 0 min 0,026 mm 0,0 UV-I 0 W/m 10,0 C 16,6 C 1,6 km/h (1 Bft)
11.06.2015 23:05 16,4 C 65 % 1015,7 hPa 0,0 l/m 0,7 km/h (0 Bft) O-NO 69 0 min 0,000 mm 0,0 UV-I 0 W/m 9,8 C 16,4 C 8,0 km/h (2 Bft)
11.06.2015 23:10 16,4 C 65 % 1015,8 hPa 0,0 l/m 0,8 km/h (0 Bft) O-NO 64 0 min 0,000 mm 0,0 UV-I 0 W/m 9,8 C 16,4 C 4,8 km/h (1 Bft)
11.06.2015 23:15 16,4 C 65 % 1015,7 hPa 0,0 l/m 0,4 km/h (0 Bft) O-NO 57 0 min 0,000 mm 0,0 UV-I 0 W/m 9,8 C 16,4 C 3,2 km/h (1 Bft)
11.06.2015 23:20 16,3 C 65 % 1015,7 hPa 0,0 l/m 0,7 km/h (0 Bft) NO 54 0 min 0,000 mm 0,0 UV-I 0 W/m 9,7 C 16,3 C 8,0 km/h (2 Bft)
11.06.2015 23:25 16,2 C 65 % 1015,7 hPa 0,0 l/m 0,0 km/h (0 Bft) O-NO 57 0 min 0,000 mm 0,0 UV-I 0 W/m 9,6 C 16,2 C 1,6 km/h (1 Bft)
11.06.2015 23:30 16,1 C 66 % 1015,6 hPa 0,0 l/m 0,2 km/h (0 Bft) O-NO 57 0 min 0,000 mm 0,0 UV-I 0 W/m 9,7 C 16,1 C 6,4 km/h (2 Bft)
11.06.2015 23:35 15,9 C 67 % 1015,5 hPa 0,0 l/m 0,0 km/h (0 Bft) NO 47 0 min 0,000 mm 0,0 UV-I 0 W/m 9,8 C 15,9 C 0,0 km/h (0 Bft)
11.06.2015 23:40 15,8 C 67 % 1015,5 hPa 0,0 l/m 0,0 km/h (0 Bft) O 92 0 min 0,000 mm 0,0 UV-I 0 W/m 9,7 C 15,8 C 0,0 km/h (0 Bft)
11.06.2015 23:45 15,7 C 67 % 1015,5 hPa 0,0 l/m 0,0 km/h (0 Bft) NO 55 0 min 0,000 mm 0,0 UV-I 0 W/m 9,6 C 15,7 C 1,6 km/h (1 Bft)
11.06.2015 23:50 15,6 C 68 % 1015,5 hPa 0,0 l/m 0,0 km/h (0 Bft) NO 55 0 min 0,000 mm 0,0 UV-I 0 W/m 9,7 C 15,6 C 0,0 km/h (0 Bft)
11.06.2015 23:55 15,3 C 69 % 1015,4 hPa 0,0 l/m 0,0 km/h (0 Bft) NO 55 0 min 0,000 mm 0,0 UV-I 0 W/m 9,6 C 15,3 C 0,0 km/h (0 Bft)
_ Min-Zeit 05:40 13:25 21:00 - 00:10 - - - - - - 05:25 05:40 00:30
Minimum _ 15,1 C 43 % 1015,2 hPa - 0,0 km/h (0 Bft) - - - - - - 8,2 C 15,1 C 0,0 km/h (0 Bft)
_ Max-Zeit 17:35 23:55 00:00 00:00 13:10 - - 08:45 14:00 13:25 12:30 10:50 17:30 10:25
Maximum _ 24,1 C 69 % 1022,8 hPa 0,0 l/m 12,5 km/h
O (3 Bft)
- - 5 min 0,559 mm 7,4 UV-I 1200 W/m 11,0 C 23,8 C 22,5 km/h
O (4 Bft)
Durchschnitt _ 19,0 C 55 % 1019,1 hPa #0,0 l/m 3,5 km/h (1 Bft) O-NO - #8:20 h #4,242 mm 2,9 UV-I 346 W/m 9,6 C 18,8 C 10,2 km/h (2 Bft)